User: anonymous   Login
Location: Acorn Hill
(36.4429°N, 76.5469°W)
Time: 21:28:56
(UTC+00:00)
Language:

ISS - Orbit

View from above orbital plane
View from above orbital plane
View from above satellite
View from above satellite

Ground track
Ground track

The orbit data is extracted from the following two-line orbital elements,

1 25544U 98067A   21259.53526913  .00002297  00000-0  50845-4 0  9999
2 25544  51.6441 251.0454 0003002  23.9092  73.1328 15.48399394302750
Epoch (UTC): 16 September 2021 12:50:47
Eccentricity: 0.0003002
inclination: 51.6441°
perigee height: 419 km
apogee height: 423 km
right ascension of ascending node: 251.0454°
argument of perigee: 23.9092°
revolutions per day: 15.48399394
mean anomaly at epoch: 73.1328°
orbit number at epoch: 30275

The dashed part of the orbit path shows where the satellite is in the earth's shadow,  

DLR